When you browse on this site, cookies collect data to enhance your experience and personalize the content and advertising you see.
Visit our Privacy Policy to learn more. By continuing to use the site, you agree to this use of cookies and data.

Hourly Weather Batina

Today, 20 September, Sunday

Time Temperature Precipitation Wind Pressure Humidity
00:00 +26°C° 0 mm 2 mps 674 mmHg 42%
01:00 +26°C° 0 mm 2 mps 674 mmHg 42%
02:00 +25°C° 0 mm 2 mps 673 mmHg 42%
03:00 +25°C° 0 mm 2 mps 673 mmHg 42%
04:00 +25°C° 0 mm 2 mps 673 mmHg 45%
05:00 +24°C° 0 mm 1 mps 673 mmHg 47%
06:00 +24°C° 0 mm 1 mps 674 mmHg 49%
07:00 +26°C° 0 mm 2 mps 674 mmHg 43%
08:00 +27°C° 0 mm 3 mps 675 mmHg 37%
09:00 +29°C° 0 mm 3 mps 675 mmHg 32%
10:00 +29°C° 0 mm 4 mps 675 mmHg 30%
11:00 +30°C° 0 mm 5 mps 675 mmHg 28%
12:00 +32°C° 0 mm 6 mps 675 mmHg 26%
13:00 +32°C° 0 mm 6 mps 674 mmHg 27%
14:00 +32°C° 0 mm 6 mps 674 mmHg 27%
15:00 +32°C° 0 mm 7 mps 674 mmHg 28%
16:00 +29°C° 0 mm 5 mps 673 mmHg 31%
17:00 +28°C° 0 mm 4 mps 673 mmHg 35%
18:00 +27°C° 0 mm 3 mps 673 mmHg 39%
19:00 +26°C° 0.2 mm 2 mps 673 mmHg 44%
20:00 +26°C° 0.2 mm 2 mps 673 mmHg 49%
21:00 +25°C° 0.2 mm 2 mps 674 mmHg 54%
22:00 +24°C° 0.1 mm 2 mps 673 mmHg 55%
23:00 +24°C° 0.1 mm 1 mps 673 mmHg 56%

Tomorrow, 21 September, Monday

Time Temperature Precipitation Wind Pressure Humidity
00:00 +24°C° 0.1 mm 1 mps 673 mmHg 58%
01:00 +23°C° 0 mm 1 mps 673 mmHg 57%
02:00 +23°C° 0 mm 1 mps 672 mmHg 57%
03:00 +23°C° 0 mm 1 mps 672 mmHg 57%
04:00 +23°C° 0 mm 1 mps 672 mmHg 58%
05:00 +23°C° 0 mm 1 mps 672 mmHg 59%
06:00 +23°C° 0 mm 2 mps 672 mmHg 60%
07:00 +24°C° 0 mm 2 mps 673 mmHg 55%
08:00 +25°C° 0 mm 2 mps 673 mmHg 50%
09:00 +26°C° 0 mm 2 mps 674 mmHg 44%
10:00 +27°C° 0 mm 3 mps 674 mmHg 40%
11:00 +28°C° 0 mm 4 mps 674 mmHg 35%
12:00 +29°C° 0 mm 5 mps 674 mmHg 31%
13:00 +29°C° 0 mm 5 mps 674 mmHg 30%
14:00 +30°C° 0 mm 6 mps 673 mmHg 29%
15:00 +30°C° 0 mm 7 mps 673 mmHg 28%
16:00 +28°C° 0 mm 5 mps 673 mmHg 33%
17:00 +27°C° 0 mm 3 mps 672 mmHg 39%
18:00 +26°C° 0 mm 1 mps 672 mmHg 44%
19:00 +25°C° 0 mm 1 mps 672 mmHg 50%
20:00 +24°C° 0 mm 1 mps 672 mmHg 55%
21:00 +23°C° 0 mm 1 mps 672 mmHg 61%
22:00 +23°C° 0.1 mm 1 mps 672 mmHg 61%
23:00 +22°C° 0.1 mm 1 mps 672 mmHg 62%

Day after tomorrow, 22 September, Tuesday

Time Temperature Precipitation Wind Pressure Humidity
00:00 +22°C° 0.1 mm 1 mps 671 mmHg 63%
01:00 +22°C° 0.1 mm 1 mps 671 mmHg 63%
02:00 +22°C° 0.1 mm 1 mps 671 mmHg 62%
03:00 +21°C° 0.1 mm 1 mps 671 mmHg 62%
04:00 +21°C° 0 mm 1 mps 671 mmHg 62%
05:00 +22°C° 0 mm 1 mps 671 mmHg 62%
06:00 +22°C° 0 mm 1 mps 671 mmHg 62%
07:00 +23°C° 0 mm 1 mps 671 mmHg 55%
08:00 +24°C° 0 mm 2 mps 672 mmHg 48%
09:00 +26°C° 0 mm 2 mps 672 mmHg 42%
10:00 +27°C° 0 mm 3 mps 672 mmHg 39%
11:00 +27°C° 0 mm 5 mps 672 mmHg 37%
12:00 +28°C° 0 mm 6 mps 673 mmHg 34%
13:00 +28°C° 0 mm 6 mps 672 mmHg 35%
14:00 +28°C° 0 mm 7 mps 672 mmHg 35%
15:00 +27°C° 0 mm 8 mps 672 mmHg 35%
16:00 +26°C° 0.4 mm 7 mps 672 mmHg 45%
17:00 +23°C° 0.4 mm 5 mps 671 mmHg 54%
18:00 +21°C° 0.4 mm 4 mps 671 mmHg 64%
19:00 +21°C° 0.1 mm 4 mps 671 mmHg 60%
20:00 +22°C° 0.1 mm 4 mps 672 mmHg 56%
21:00 +23°C° 0.1 mm 4 mps 672 mmHg 52%
22:00 +22°C° 0.1 mm 4 mps 672 mmHg 52%
23:00 +22°C° 0.1 mm 4 mps 672 mmHg 52%

23 September, Wednesday

Time Temperature Precipitation Wind Pressure Humidity
00:00 +22°C° 0.1 mm 4 mps 671 mmHg 52%
01:00 +22°C° 0 mm 4 mps 671 mmHg 53%
02:00 +21°C° 0 mm 4 mps 671 mmHg 54%
03:00 +21°C° 0 mm 4 mps 670 mmHg 55%
04:00 +21°C° 0 mm 4 mps 671 mmHg 55%
05:00 +21°C° 0 mm 3 mps 671 mmHg 55%
06:00 +21°C° 0 mm 3 mps 671 mmHg 55%
07:00 +21°C° 0.1 mm 5 mps 671 mmHg 55%
08:00 +22°C° 0.1 mm 7 mps 672 mmHg 54%
09:00 +22°C° 0.1 mm 9 mps 672 mmHg 54%
10:00 +22°C° 0 mm 9 mps 672 mmHg 50%
11:00 +23°C° 0 mm 9 mps 673 mmHg 46%
12:00 +24°C° 0 mm 9 mps 673 mmHg 42%
13:00 +26°C° 0 mm 9 mps 673 mmHg 39%
14:00 +27°C° 0 mm 9 mps 672 mmHg 36%
15:00 +28°C° 0 mm 9 mps 672 mmHg 32%
16:00 +26°C° 0 mm 7 mps 672 mmHg 36%
17:00 +25°C° 0 mm 5 mps 672 mmHg 39%
18:00 +24°C° 0 mm 3 mps 671 mmHg 43%
19:00 +24°C° 0 mm 2 mps 672 mmHg 44%
20:00 +23°C° 0 mm 2 mps 672 mmHg 46%
21:00 +21°C° 0 mm 2 mps 672 mmHg 47%
22:00 +21°C° 0 mm 2 mps 672 mmHg 48%
23:00 +22°C° 0 mm 1 mps 672 mmHg 48%

24 September, Thursday

Time Temperature Precipitation Wind Pressure Humidity
00:00 +22°C° 0 mm 1 mps 671 mmHg 48%
01:00 +22°C° 0 mm 1 mps 671 mmHg 48%
02:00 +22°C° 0 mm 1 mps 671 mmHg 47%
03:00 +22°C° 0 mm 1 mps 671 mmHg 46%
04:00 +22°C° 0 mm 1 mps 671 mmHg 47%
05:00 +22°C° 0 mm 1 mps 671 mmHg 48%
06:00 +21°C° 0 mm 1 mps 671 mmHg 48%
07:00 +24°C° 0 mm 2 mps 671 mmHg 41%
08:00 +27°C° 0 mm 3 mps 672 mmHg 33%
09:00 +29°C° 0 mm 4 mps 673 mmHg 26%
10:00 +32°C° 0 mm 5 mps 673 mmHg 24%
11:00 +33°C° 0 mm 7 mps 673 mmHg 21%
12:00 +34°C° 0 mm 9 mps 673 mmHg 19%
13:00 +34°C° 0 mm 9 mps 673 mmHg 19%
14:00 +33°C° 0 mm 9 mps 672 mmHg 20%
15:00 +33°C° 0 mm 9 mps 672 mmHg 21%
16:00 +30°C° 0 mm 7 mps 672 mmHg 24%
17:00 +29°C° 0 mm 4 mps 672 mmHg 27%
18:00 +27°C° 0 mm 2 mps 671 mmHg 30%
19:00 +26°C° 0 mm 2 mps 672 mmHg 34%
20:00 +25°C° 0 mm 2 mps 672 mmHg 39%
21:00 +24°C° 0 mm 1 mps 672 mmHg 44%
22:00 +23°C° 0 mm 2 mps 672 mmHg 48%
23:00 +23°C° 0 mm 2 mps 671 mmHg 52%

25 September, Friday

Time Temperature Precipitation Wind Pressure Humidity
00:00 +21°C° 0 mm 2 mps 671 mmHg 56%
01:00 +21°C° 0 mm 2 mps 671 mmHg 55%
02:00 +23°C° 0 mm 1 mps 671 mmHg 53%
03:00 +23°C° 0 mm 1 mps 670 mmHg 52%
04:00 +23°C° 0 mm 1 mps 670 mmHg 50%
05:00 +23°C° 0 mm 1 mps 671 mmHg 49%
06:00 +24°C° 0 mm 1 mps 671 mmHg 48%
07:00 +25°C° 0 mm 3 mps 671 mmHg 42%
08:00 +26°C° 0 mm 4 mps 672 mmHg 36%
09:00 +27°C° 0 mm 6 mps 672 mmHg 31%
10:00 +27°C° 0 mm 7 mps 672 mmHg 30%
11:00 +27°C° 0 mm 8 mps 672 mmHg 30%
12:00 +27°C° 0 mm 9 mps 672 mmHg 29%
13:00 +27°C° 0 mm 9 mps 672 mmHg 31%
14:00 +27°C° 0 mm 9 mps 672 mmHg 34%
15:00 +26°C° 0 mm 8 mps 672 mmHg 36%
16:00 +24°C° 0 mm 7 mps 672 mmHg 43%
17:00 +22°C° 0 mm 7 mps 672 mmHg 50%
18:00 +21°C° 0 mm 6 mps 672 mmHg 57%
19:00 +20°C° 0 mm 5 mps 672 mmHg 63%
20:00 +18°C° 0 mm 4 mps 672 mmHg 69%
21:00 +17°C° 0 mm 3 mps 672 mmHg 75%
22:00 +17°C° 0 mm 3 mps 672 mmHg 74%
23:00 +16°C° 0 mm 3 mps 672 mmHg 74%
Show more